Seretse Khama, Botswana

10:58 PM CAT on October 17, 2017 (GMT +0200)
Seretse Khama

Weather History for FBSK - June, 2013

Change the Weather History Date:

Saturday, June 8, 2013

  Actual Average Record
Temperature  
Mean Temperature 60 °F -  
Max Temperature 82 °F 70 °F 82 °F (2005)
Min Temperature 39 °F 40 °F 28 °F (1998)
Degree Days  
Heating Degree Days 4    
Growing Degree Days 10 (Base 50)    
Moisture  
Dew Point 36 °F    
Average Humidity 51    
Maximum Humidity 100    
Minimum Humidity 12    
Precipitation  
Precipitation 0.00 in - - ()
Sea Level Pressure  
Sea Level Pressure 30.13 in    
Wind  
Wind Speed 5 mph ()    
Max Wind Speed 15 mph    
Max Gust Speed -    
Averages and records for this station are not official NWS values.
T = Trace of Precipitation, MM = Missing Value Source: Averaged Metar Reports

Daily Weather History Graph

Daily Weather History Graph

Search for Another Location

Airport or City:

Trip Planner

Search our weather history database for the weather conditions in past years. The results will help you decide how hot, cold, wet, or windy it might be!

Date:

Astronomy

Jun. 08, 2013 Rise Set
Actual Time 6:55 AM CAT 5:34 PM CAT
Civil Twilight 6:30 AM CAT 5:59 PM CAT
Nautical Twilight 6:02 AM CAT 6:28 PM CAT
Astronomical Twilight 5:34 AM CAT 6:55 PM CAT
Moon 6:33 AM CAT (6/8) 5:36 PM CAT (6/8)
Length of Visible Light 11h 28m
Length of Day
10h 39m
Waning Crescent, 0% of the Moon is Illuminated
Jun 8
Waning Crescent
Jun 8
New
Jun 16
First Quarter
Jun 23
Full
Jun 30
Last Quarter

Hourly Weather History & Observations

Time (CAT) Temp. Windchill Dew Point Humidity Pressure Visibility Wind Dir Wind Speed Gust Speed Precip Events Conditions
12:00 AM 51.8 °F - 44.6 °F 76% 30.21 in - SE 4.6 mph - N/A   Clear
1:00 AM 50.0 °F - 42.8 °F 76% 30.21 in - ESE 3.5 mph - N/A   Clear
2:00 AM 50.0 °F - 44.6 °F 82% 30.21 in - South 8.1 mph - N/A   Clear
3:00 AM 48.2 °F - 44.6 °F 87% 30.18 in - SSE 4.6 mph - N/A   Clear
4:00 AM 44.6 °F 43.1 °F 39.2 °F 81% 30.18 in - SSE 3.5 mph - N/A   Clear
5:00 AM 42.8 °F 41.1 °F 42.8 °F 100% 30.15 in - SSE 3.5 mph - N/A   Clear
6:00 AM 39.2 °F 37.0 °F 39.2 °F 100% 30.15 in - WNW 3.5 mph - N/A   Clear
7:00 AM 39.2 °F - 37.4 °F 93% 30.18 in - Variable 2.3 mph - N/A   Clear
8:00 AM 50.0 °F - 44.6 °F 82% 30.18 in - SE 4.6 mph - N/A   Clear
9:00 AM 53.6 °F - 46.4 °F 77% 30.18 in - ESE 6.9 mph - N/A   Clear
10:00 AM 59.0 °F - 44.6 °F 59% 30.18 in - SSE 4.6 mph - N/A   Clear
11:00 AM 66.2 °F - 41.0 °F 40% 30.18 in - Variable 2.3 mph - N/A   Clear
12:00 PM 73.4 °F - 41.0 °F 31% 30.15 in - Variable 2.3 mph - N/A   Clear
1:00 PM 78.8 °F - 35.6 °F 21% 30.09 in - NW 4.6 mph - N/A   Clear
2:00 PM 80.6 °F - 30.2 °F 16% 30.06 in - West 6.9 mph - N/A   Clear
3:00 PM 82.4 °F - 26.6 °F 13% 30.04 in - West 15.0 mph - N/A   Clear
4:00 PM 82.4 °F - 24.8 °F 12% 30.04 in - West 12.7 mph - N/A   Clear
5:00 PM 80.6 °F - 24.8 °F 13% 30.04 in - West 9.2 mph - N/A   Clear
6:00 PM 73.4 °F - 26.6 °F 18% 30.06 in - West 5.8 mph - N/A   Clear
7:00 PM 66.2 °F - 28.4 °F 24% 30.06 in - SW 5.8 mph - N/A   Clear
8:00 PM 62.6 °F - 28.4 °F 27% 30.06 in - West 3.5 mph - N/A   Clear
9:00 PM 60.8 °F - 28.4 °F 29% 30.09 in - West 6.9 mph - N/A   Clear
10:00 PM 59.0 °F - 28.4 °F 31% 30.09 in - West 6.9 mph - N/A   Clear
11:00 PM 57.2 °F - 28.4 °F 33% 30.09 in - West 4.6 mph - N/A   Clear